This is the latest recevied weather packets stored in our database for station/object N5JXS. If no packets are shown the sender has not sent any weather packets the latest 10 day(s).
| Time | Temp. | Humidity | Pressure | Rain* | Wind** | Luminosity | Snow |
|---|---|---|---|---|---|---|---|
| 1777762886 | 16.11° C | 25% | 1022.6 hPa | 0 mm | - | 62 W/m² | - |
| 1777762581 | 16.11° C | 25% | 1022.9 hPa | 0 mm | - | 44 W/m² | - |
| 1777762279 | 16.11° C | 25% | 1023.1 hPa | 0 mm | - | 40 W/m² | - |
| 1777761975 | 16.11° C | 25% | 1023 hPa | 0 mm | - | 51 W/m² | - |
| 1777761672 | 16.67° C | 24% | 1023 hPa | 0 mm | - | 156 W/m² | - |
| 1777761370 | 16.67° C | 25% | 1023.2 hPa | 0 mm | - | 209 W/m² | - |
| 1777761068 | 16.67° C | 24% | 1023.1 hPa | 0 mm | - | 229 W/m² | - |
| 1777760765 | 16.67° C | 25% | 1023.4 hPa | 0 mm | - | 46 W/m² | - |
| 1777760461 | 16.67° C | 24% | 1023.1 hPa | 0 mm | - | 190 W/m² | - |
| 1777760156 | 16.11° C | 26% | 1023.2 hPa | 0 mm | - | 74 W/m² | - |
| 1777759854 | 16.67° C | 24% | 1023.5 hPa | 0 mm | - | 56 W/m² | - |
| 1777759550 | 16.67° C | 23% | 1023.2 hPa | 0 mm | - | 108 W/m² | - |
| 1777759247 | 17.22° C | 22% | 1023.2 hPa | 0 mm | - | 50 W/m² | - |
| 1777758944 | 16.67° C | 22% | 1023.5 hPa | 0 mm | - | 52 W/m² | - |
| 1777758641 | 17.22° C | 23% | 1023.4 hPa | 0 mm | - | 69 W/m² | - |
| 1777758338 | 16.67° C | 23% | 1023.6 hPa | 0 mm | - | 60 W/m² | - |
| 1777758035 | 16.67° C | 23% | 1023.9 hPa | 0 mm | - | 549 W/m² | - |
| 1777757731 | 17.22° C | 23% | 1023.7 hPa | 0 mm | - | 556 W/m² | - |
| 1777757430 | 17.22° C | 22% | 1023.9 hPa | 0 mm | - | 582 W/m² | - |
| 1777757128 | 17.22° C | 21% | 1024.1 hPa | 0 mm | - | 595 W/m² | - |
| 1777756826 | 16.67° C | 22% | 1024 hPa | 0 mm | - | 616 W/m² | - |
| 1777756521 | 17.22° C | 23% | 1024.4 hPa | 0 mm | - | 598 W/m² | - |
| 1777756218 | 17.22° C | 21% | 1024 hPa | 0 mm | - | 600 W/m² | - |
| 1777755915 | 17.22° C | 20% | 1024.2 hPa | 0 mm | - | 611 W/m² | - |
| 1777755613 | 16.67° C | 22% | 1024.6 hPa | 0 mm | - | 630 W/m² | - |
* Rain latest hour (hover to see other rain measurements)
** Current wind speed in m/s (hover to see current wind gust speed)